This is the latest recevied weather packets stored in our database for station/object OE6ACM-10. If no packets are shown the sender has not sent any weather packets the latest 10 day(s).
| Time | Temp. | Humidity | Pressure | Rain* | Wind** | Luminosity | Snow |
|---|---|---|---|---|---|---|---|
| 1777905788 | 47.22° C | 26% | 922.4 hPa | - | - | - | - |
| 1777905488 | 47.22° C | 26% | 922.4 hPa | - | - | - | - |
| 1777905188 | 47.78° C | 26% | 922.4 hPa | - | - | - | - |
| 1777904888 | 47.78° C | 25% | 922.4 hPa | - | - | - | - |
| 1777904588 | 47.78° C | 25% | 922.5 hPa | - | - | - | - |
| 1777904288 | 49.44° C | 24% | 922.5 hPa | - | - | - | - |
| 1777903988 | 49.44° C | 25% | 922.5 hPa | - | - | - | - |
| 1777903688 | 48.89° C | 26% | 922.5 hPa | - | - | - | - |
| 1777903388 | 46.67° C | 26% | 922.6 hPa | - | - | - | - |
| 1777903088 | 46.11° C | 29% | 922.7 hPa | - | - | - | - |
| 1777902788 | 46.11° C | 28% | 922.7 hPa | - | - | - | - |
| 1777902488 | 46.67° C | 27% | 922.7 hPa | - | - | - | - |
| 1777902188 | 47.22° C | 26% | 922.8 hPa | - | - | - | - |
| 1777901888 | 46.11° C | 26% | 922.8 hPa | - | - | - | - |
| 1777901588 | 45.56° C | 26% | 922.9 hPa | - | - | - | - |
| 1777901288 | 46.67° C | 26% | 922.9 hPa | - | - | - | - |
| 1777900988 | 45° C | 26% | 923 hPa | - | - | - | - |
| 1777900688 | 45.56° C | 28% | 923.2 hPa | - | - | - | - |
| 1777900388 | 46.11° C | 28% | 923.2 hPa | - | - | - | - |
| 1777900088 | 46.67° C | 32% | 923.2 hPa | - | - | - | - |
| 1777899788 | 45° C | 29% | 923.3 hPa | - | - | - | - |
| 1777899488 | 45.56° C | 31% | 923.4 hPa | - | - | - | - |
| 1777899188 | 43.89° C | 29% | 923.4 hPa | - | - | - | - |
| 1777898888 | 44.44° C | 28% | 923.4 hPa | - | - | - | - |
| 1777898588 | 43.33° C | 31% | 923.5 hPa | - | - | - | - |
* Rain since midnight (hover to see other rain measurements)
** Current wind speed in m/s (hover to see current wind gust speed)